Location: Melita
(38.4566°N, 122.6369°W)
Time: 18:51:01
(UTC+00:00)

Cosmos 2322 Rocket - Pass Details

Date: 24 January 2020
Orbit: 831 x 852 km, 71.0° (Epoch: 15 February)

Event Time Altitude Azimuth Distance (km) Brightness Sun altitude
Rises 13:00:55 0° 179° (S) 3,377 5.4 -27.6°
Reaches altitude 10° 13:03:29 10° 171° (S) 2,450 4.7 -27.1°
Maximum altitude 13:08:38 38° 105° (ESE) 1,269 3.6 -26.1°
Drops below altitude 10° 13:13:50 10° 39° (NE) 2,477 5.0 -25.0°
Sets 13:16:26 0° 31° (NNE) 3,420 5.7 -24.5°
